Tracking 20093 objects as of 14-Dec-2019
HD Live streaming from Space Station
objects crossing your sky now

COSMOS 2251 DEB

Track COSMOS 2251 DEB now!
10-day predictions


NORAD ID: 38485
Int'l Code: 1993-036BTV
Perigee: 668.5 km
Apogee: 731.3 km
Inclination: 74.0 °
Period: 98.6 minutes
Semi major axis: 7070 km
RCS: 0.001 m2 (small)
Launch date: June 16, 1993
Source: Commonwealth of Independent States (former USSR) (CIS)
Launch site: PLESETSK MISSILE AND SPACE COMPLEX (PKMTR)

Note: This is SATELLITE DEBRIS
aabbcc
Your satellite tracking list
Your tracking list is empty




NASA's NSSDC Master Catalog

Two Line Element Set (TLE):
1 38485U 93036BTV 19347.65454592 +.00000583 +00000-0 +12585-3 0  9993
2 38485 074.0203 104.6054 0044400 070.5692 290.0264 14.60118709853283
Source of the keplerian elements: AFSPC